This is the latest recevied weather packets stored in our database for station/object K7SKM. If no packets are shown the sender has not sent any weather packets the latest 10 day(s).
| Time | Temp. | Humidity | Pressure | Rain* | Wind** | Luminosity | Snow |
|---|---|---|---|---|---|---|---|
| 1788663443 | 17.22° C | 68% | 1021 hPa | 0 mm | - | 0 W/m² | - |
| 1788663138 | 17.22° C | 68% | 1021 hPa | 0 mm | - | 0 W/m² | - |
| 1788662837 | 17.78° C | 67% | 1021.1 hPa | 0 mm | - | 0 W/m² | - |
| 1788662536 | 17.78° C | 67% | 1021 hPa | 0 mm | - | 0 W/m² | - |
| 1788662232 | 18.33° C | 64% | 1021 hPa | 0 mm | - | 0 W/m² | - |
| 1788661927 | 18.33° C | 59% | 1021 hPa | 0 mm | - | 0 W/m² | - |
| 1788661622 | 18.33° C | 57% | 1020.9 hPa | 0 mm | - | 2 W/m² | - |
| 1788661318 | 18.89° C | 55% | 1020.9 hPa | 0 mm | - | 3 W/m² | - |
| 1788661014 | 19.44° C | 54% | 1020.9 hPa | 0 mm | - | 4 W/m² | - |
| 1788660722 | 19.44° C | 53% | 1020.9 hPa | 0 mm | - | 5 W/m² | - |
| 1788660407 | 20° C | 53% | 1020.7 hPa | 0 mm | - | 7 W/m² | - |
| 1788660102 | 20° C | 51% | 1021 hPa | 0 mm | - | 9 W/m² | - |
| 1788659796 | 20.56° C | 50% | 1021.1 hPa | 0 mm | - | 11 W/m² | - |
| 1788659494 | 21.11° C | 49% | 1021.1 hPa | 0 mm | - | 13 W/m² | - |
| 1788659189 | 21.11° C | 47% | 1020.8 hPa | 0 mm | - | 17 W/m² | - |
| 1788658885 | 21.67° C | 46% | 1021 hPa | 0 mm | - | 19 W/m² | - |
| 1788658593 | 22.78° C | 44% | 1021 hPa | 0 mm | - | 25 W/m² | - |
| 1788658276 | 22.22° C | 46% | 1020.8 hPa | 0 mm | - | 199 W/m² | - |
| 1788657971 | 23.33° C | 42% | 1020.8 hPa | 0 mm | - | 220 W/m² | - |
| 1788657671 | 23.33° C | 43% | 1020.9 hPa | 0 mm | - | 228 W/m² | - |
| 1788657367 | 23.33° C | 44% | 1021 hPa | 0 mm | - | 244 W/m² | - |
| 1788657061 | 22.78° C | 45% | 1020.6 hPa | 0 mm | - | 260 W/m² | - |
| 1788656756 | 22.78° C | 45% | 1020.8 hPa | 0 mm | - | 268 W/m² | - |
| 1788656453 | 23.33° C | 43% | 1020.9 hPa | 0 mm | - | 279 W/m² | - |
| 1788656152 | 22.78° C | 44% | 1020.9 hPa | 0 mm | - | 289 W/m² | - |
* Rain latest hour (hover to see other rain measurements)
** Current wind speed in m/s (hover to see current wind gust speed)